Tracking 28790 objects as of 18-Apr-2024
HD Live streaming from Space Station
objects crossing your sky now

NSS 513 (INTELSAT 513)

Track NSS 513 (INTELSAT 513) now!
NSS 513 (INTELSAT 513) is classified as:


NORAD ID: 19121
Int'l Code: 1988-040A
Perigee: 36,213.5 km
Apogee: 36,340.5 km
Inclination: 15.0 °
Period: 1,460.9 minutes
Semi major axis: 42647 km
RCS: 9.2727 m2 (large)
Launch date: May 17, 1988
Source: Netherlands (NETH)
Launch site: FRENCH GUIANA (FRGUI)
Your satellite tracking list
Your tracking list is empty




NASA's NSSDC Master Catalog

Two Line Element Set (TLE):
1 19121U 88040A   24108.15859052 -.00000085  00000-0  00000-0 0  9998
2 19121  14.9766 354.5904 0014891  92.6486  98.3280  0.98572393106741
Source of the keplerian elements: AFSPC